Temperature
24 23 23 23 22 22 21 21 21 21 21 21 20 19 18 18 17 17 17 17 17 16 16 16 15 15 14 13 13 13 12 12 11 11 11 11 11 11 11 11 11 11 11 12
24 24 23 23 23 23 22 22 21 21 21 22 20 19 19 18 18 18 17 17 17 16 16 16 16 15 14 14 13 13 12 12 11 11 11 11 11 11 11 11 11 11 11 11
24 25 23 23 25 24 23 23 22 21 22 21 20 20 19 19 18 18 18 17 17 16 16 16 16 15 15 14 13 13 12 12 11 11 11 11 11 11 10 10 10 10 10 10
24 25 24 24 25 25 24 23 23 22 22 21 20 20 19 18 18 18 18 17 17 16 16 16 16 16 15 15 14 13 12 12 11 11 11 11 10 10 10 10 10 10 10 10
24 24 25 24 24 24 23 23 24 23 22 21 20 20 19 18 18 18 17 17 17 16 16 16 16 15 15 15 14 13 12 12 11 11 11 10 10 10 10 10 9 9 9 9
23 23 25 24 24 24 23 22 25 24 23 22 20 19 20 19 18 18 17 17 16 16 16 16 15 15 16 15 14 13 12 12 11 11 11 10 10 10 10 10 9 9 9 9
21 22 25 24 23 23 22 23 24 24 23 22 21 20 20 19 18 17 17 16 16 16 16 15 15 15 16 15 14 13 12 11 11 11 11 10 10 10 10 10 10 9 9 9
23 23 24 22 22 23 24 24 24 23 23 22 21 21 19 19 18 17 17 16 16 16 16 16 15 15 15 14 13 13 12 11 11 11 11 10 10 10 10 10 9 9 9 9
25 25 23 22 23 24 24 23 24 23 23 22 21 21 19 18 18 17 17 17 16 16 16 16 16 15 15 14 13 13 12 12 11 11 11 10 10 10 10 9 9 9 9 9
24 25 26 25 24 23 23 23 23 23 22 22 21 21 20 19 18 17 17 17 17 16 16 16 16 15 14 14 13 13 13 12 12 12 11 11 11 10 10 10 10 9 9 9
24 25 26 26 25 24 23 22 22 22 22 21 21 20 20 19 18 18 17 17 17 16 16 16 16 15 15 14 14 13 13 13 12 12 11 11 11 10 10 10 10 10 10 9
24 26 26 26 25 24 23 22 22 22 21 21 21 20 20 19 19 18 18 17 17 17 16 16 16 16 15 14 14 14 14 13 13 12 12 11 11 11 11 10 10 10 10 10
26 25 25 24 24 24 23 23 22 21 21 21 20 20 20 19 19 18 18 17 17 17 17 16 16 16 15 15 14 14 14 14 13 13 12 12 11 11 11 11 10 10 10 10
25 24 24 24 24 23 23 22 22 21 21 20 20 20 19 19 19 18 18 17 17 17 17 16 16 16 15 15 14 14 14 14 13 13 12 12 12 11 11 11 11 10 10 10
22 23 23 23 23 23 23 22 22 21 21 20 20 20 19 19 19 18 18 18 17 17 17 16 16 16 15 15 14 14 14 14 13 13 13 12 12 12 12 12 11 11 11 10
18 20 21 21 21 21 22 22 21 21 21 21 20 20 19 19 18 18 18 18 17 17 17 16 16 16 15 15 14 14 14 14 13 13 13 13 13 12 12 12 12 12 11 11
15 15 16 17 18 19 20 20 21 21 21 21 20 20 19 19 18 18 18 17 17 17 16 16 16 16 15 15 14 14 14 14 14 14 13 13 13 13 13 13 12 12 12 11
12 12 13 14 15 16 17 19 20 20 20 21 21 20 20 19 18 18 18 17 17 17 16 16 16 15 15 15 15 14 14 14 14 14 14 13 13 13 13 13 13 12 12 12
11 11 12 12 13 14 15 16 18 19 20 20 20 20 20 19 19 18 18 17 17 17 16 16 16 15 15 15 15 14 14 14 14 14 14 13 13 13 13 13 13 13 12 12
10 10 11 11 12 12 13 15 16 17 18 19 20 20 20 19 19 18 18 17 17 17 16 16 16 15 15 15 15 14 14 14 14 14 14 14 14 13 13 13 13 13 13 13
10 10 10 10 11 11 12 13 14 15 17 18 19 19 20 20 19 18 18 17 17 17 16 16 16 16 15 15 15 14 14 14 14 14 14 14 14 13 13 13 14 13 13 13
9 9 9 9 10 10 11 12 13 14 15 16 18 18 19 19 19 18 18 18 17 17 17 16 16 16 15 15 15 15 15 14 14 14 14 14 13 13 13 14 14 14 13 13
8 8 8 8 8 9 10 10 11 12 13 14 15 16 17 18 18 18 18 17 17 17 17 16 16 16 15 15 15 15 15 14 14 14 14 14 13 13 13 14 14 13 13 13
7 7 7 7 7 8 8 8 9 10 11 12 13 14 15 16 16 17 17 17 17 17 16 16 16 16 15 15 15 15 15 14 14 14 14 13 13 13 13 13 13 13 13 13
6 6 6 6 6 6 6 7 7 8 8 10 11 12 12 13 14 15 16 16 16 16 16 16 16 15 15 15 15 15 15 14 14 14 14 14 13 13 13 13 13 13 13 13
6 6 5 5 5 5 5 5 6 6 6 7 8 9 9 10 11 13 14 15 15 15 15 15 15 15 15 15 15 15 15 14 14 14 13 13 13 13 13 13 13 13 13 13
6 6 6 5 5 5 5 5 5 5 5 6 6 7 7 8 9 10 11 12 13 13 14 14 14 14 15 15 15 15 14 14 14 14 14 13 13 13 13 13 13 13 13 13
Wind_Speed
1 1 3 5 5 6 7 7 6 6 4 1 5 4 4 4 4 4 3 3 4 5 5 4 2 2 3 3 4 5 5 6 7 6 7 7 7 8 8 9 10 9 9 9
7 7 6 10 10 9 9 9 8 7 5 2 6 5 5 6 5 4 3 3 4 5 6 5 3 2 2 3 3 3 5 6 6 7 7 7 7 7 7 7 8 8 9 8
6 6 6 9 8 11 9 7 6 7 2 8 6 6 5 4 4 4 2 2 3 5 5 5 4 3 3 3 2 3 5 5 5 6 6 7 7 7 7 7 7 7 7 7
7 5 6 5 5 1 5 7 7 6 2 6 5 4 4 3 4 4 3 2 3 5 6 5 5 4 1 3 2 3 6 5 5 5 6 7 7 7 7 6 6 5 6 6
4 6 7 6 4 2 4 7 10 10 8 7 6 6 7 9 7 5 2 1 2 4 6 5 6 6 3 3 4 5 6 5 6 6 6 7 7 7 6 5 5 4 4 5
5 5 3 7 8 4 2 5 6 10 10 10 9 5 6 10 8 6 3 0 2 4 5 5 6 6 5 4 6 6 6 5 5 5 6 6 6 6 5 5 5 4 4 4
6 5 3 8 8 4 2 4 4 5 9 11 10 5 5 11 9 6 5 2 2 4 3 3 4 6 5 6 7 6 5 4 5 5 4 5 5 5 4 4 4 4 3 3
5 5 0 8 6 5 3 2 1 3 6 9 9 7 8 8 8 7 6 5 3 4 2 0 1 5 4 6 5 5 3 3 3 4 5 4 3 3 4 5 5 5 5 4
3 2 5 8 7 6 4 6 3 3 5 8 9 9 9 8 7 7 6 6 5 3 3 3 2 3 4 4 3 3 3 3 1 2 2 1 3 4 4 5 5 5 5 5
5 6 6 8 10 9 6 6 6 2 5 7 9 9 9 9 8 7 7 6 5 5 6 3 4 3 0 1 1 3 3 2 2 1 2 2 2 4 4 5 5 6 6 6
6 9 9 6 8 9 8 8 7 5 6 8 9 9 9 8 8 8 7 6 5 5 4 2 2 4 4 3 2 2 3 4 3 2 1 1 4 3 4 4 3 3 4 5
6 6 5 5 2 4 7 9 9 7 7 8 9 9 9 9 8 8 7 7 7 7 6 6 5 3 4 4 3 5 4 3 2 3 2 1 3 3 1 1 3 2 1 3
7 8 6 7 6 3 6 8 9 9 9 8 9 9 9 8 8 8 8 8 8 7 6 5 3 3 4 5 4 5 3 3 3 2 2 2 2 3 3 3 3 3 3 2
5 6 8 8 7 6 6 7 8 9 10 9 9 9 9 9 9 9 9 9 8 7 6 5 5 4 4 5 4 5 4 3 3 2 3 3 2 1 1 3 4 4 5 6
15 10 7 7 9 8 4 5 7 9 10 10 10 10 10 10 10 10 9 8 8 8 7 7 6 5 4 4 4 5 5 4 5 3 3 4 3 3 3 2 3 3 5 4
18 16 13 10 10 11 9 7 8 10 10 11 11 11 11 11 10 9 9 9 9 9 8 7 7 6 6 6 5 4 3 2 3 3 4 4 5 5 4 3 3 2 4 4
16 15 16 17 16 15 13 11 10 10 11 11 11 11 11 11 11 10 10 10 9 9 9 8 7 7 7 7 6 5 5 6 8 5 5 5 4 4 4 4 3 3 4 5
13 14 14 15 16 17 17 16 13 12 11 11 11 11 12 13 13 12 11 10 9 9 9 9 8 8 7 8 6 5 5 5 6 6 6 6 4 4 4 4 4 4 5 5
15 16 16 16 16 16 16 17 17 15 13 12 11 12 13 13 13 11 11 12 12 11 10 10 12 9 8 9 8 5 5 5 5 6 6 6 5 4 4 4 5 5 5 7
15 15 16 17 17 17 16 16 17 16 15 13 12 12 13 13 12 12 12 13 12 10 9 10 11 10 8 9 10 6 6 7 6 5 5 5 5 6 6 6 6 5 5 6
15 16 17 17 17 17 17 18 16 16 15 13 12 11 11 11 11 12 12 12 11 11 12 14 11 9 9 9 12 7 7 7 6 5 5 5 5 6 6 6 6 6 6 5
14 15 16 17 17 17 17 17 18 18 17 14 12 10 9 9 10 11 12 10 9 13 11 9 8 11 13 12 8 8 7 7 6 6 5 5 5 5 5 6 5 5 6 6
14 14 15 16 16 17 17 17 19 18 17 16 14 11 9 8 7 8 9 8 8 13 12 9 12 16 17 11 8 9 8 8 7 7 6 6 6 5 5 6 5 5 5 5
13 14 15 15 15 15 16 17 17 16 17 16 15 15 12 8 6 6 7 9 14 15 11 12 18 19 18 10 8 8 8 8 8 7 6 6 6 6 6 5 5 4 4 5
12 13 13 14 13 12 13 15 15 15 16 15 18 17 14 10 8 7 5 5 10 13 10 12 18 19 15 10 9 9 8 8 8 7 7 6 6 5 5 5 5 4 4 4
10 9 9 10 9 9 10 10 10 11 12 13 14 14 14 12 12 11 8 5 3 8 8 7 10 13 11 10 10 10 9 8 8 7 7 6 6 6 6 6 7 5 4 4
10 9 7 7 6 6 7 8 9 9 10 11 13 14 15 15 14 14 13 10 5 1 3 3 6 8 9 10 10 9 8 8 8 8 8 7 6 6 6 7 6 5 5 5
Wind_Direction
25 280 286 281 260 238 251 276 299 354 350 302 148 165 187 199 218 245 279 320 357 343 347 354 8 5 40 52 27 16 26 27 12 14 24 16 24 21 24 27 30 24 28 31
258 221 250 267 257 244 244 257 270 284 280 153 134 162 189 200 214 236 267 333 355 346 351 347 354 35 64 65 44 18 42 40 20 18 20 16 24 22 25 38 36 29 23 25
299 164 255 265 243 225 226 231 246 262 264 135 168 192 202 205 210 242 269 334 345 346 337 326 352 38 67 67 61 30 50 47 34 24 20 16 19 23 23 33 43 39 20 17
289 268 279 89 62 112 225 237 229 243 193 157 189 171 181 210 215 242 260 320 357 344 329 340 16 17 85 119 98 64 55 39 36 36 27 20 16 24 28 22 29 42 23 13
290 311 291 144 137 153 227 262 230 214 208 181 186 188 205 200 198 211 223 352 346 336 323 8 19 352 342 96 86 68 60 42 33 33 34 24 18 18 27 17 11 28 25 16
293 295 324 100 113 121 254 268 214 191 192 181 178 223 226 175 170 181 177 203 356 319 327 23 3 329 321 77 78 66 54 48 37 36 45 32 19 12 14 11 359 5 24 28
262 277 311 113 123 146 257 26 49 178 183 182 189 215 116 139 155 163 163 180 275 294 335 40 347 318 337 64 75 78 59 46 35 20 53 66 20 1 7 358 343 349 10 38
226 251 224 134 155 208 284 37 273 212 189 186 186 170 136 148 154 165 174 187 224 276 309 104 325 323 16 69 80 97 95 60 46 41 22 34 25 355 352 349 351 1 10 27
298 347 124 187 211 238 288 298 280 187 189 185 185 177 162 165 168 182 195 192 195 230 279 265 130 35 13 78 107 142 159 157 184 151 126 40 358 7 11 8 8 7 10 12
287 283 259 214 215 237 242 254 281 211 189 189 191 186 174 176 180 190 206 203 183 213 242 232 134 145 191 106 191 197 176 181 197 162 112 111 59 31 35 24 13 5 8 7
260 270 268 233 205 222 231 230 245 233 205 197 193 194 186 187 187 190 201 193 181 222 250 279 217 192 170 166 240 224 188 199 190 149 117 100 108 66 59 83 73 26 2 356
247 314 343 359 101 206 229 228 228 225 218 202 197 201 197 196 190 188 197 198 194 208 219 234 226 191 151 155 232 253 220 188 176 171 152 153 150 138 58 120 156 125 36 3
276 313 322 321 321 285 250 239 229 222 218 210 203 203 204 199 192 189 198 206 205 207 217 236 223 207 180 171 223 258 251 184 169 162 154 207 210 174 181 206 236 255 261 294
333 320 300 297 291 270 252 246 237 228 221 216 207 204 207 207 202 199 203 206 204 205 209 222 229 230 197 179 207 244 247 155 151 175 200 218 216 238 198 176 192 214 227 242
344 329 313 313 314 307 281 257 245 235 225 220 212 206 208 210 211 207 205 204 200 200 208 217 218 218 196 181 216 244 241 185 180 210 204 205 197 216 233 222 204 172 158 206
346 350 351 338 319 308 296 269 252 246 235 226 219 212 210 211 212 209 205 201 200 201 205 214 218 208 190 181 207 241 248 170 173 209 232 217 205 211 216 215 218 175 148 156
1 355 347 339 330 320 308 291 271 259 248 236 226 218 212 210 210 211 209 206 204 200 198 207 213 203 190 180 198 217 222 199 192 212 245 245 222 217 210 195 200 176 139 140
2 350 342 333 328 322 315 307 293 274 261 250 232 219 215 214 215 212 208 208 207 203 203 205 200 195 192 186 199 223 237 212 186 201 222 236 232 228 219 200 200 184 156 161
5 357 350 342 335 326 318 310 303 294 278 259 243 228 220 218 216 211 207 209 211 210 204 200 202 197 192 190 192 202 242 257 221 209 212 210 207 231 242 219 211 210 182 167
2 358 353 348 344 336 327 318 309 300 292 274 255 239 226 219 213 210 210 216 214 205 194 193 195 197 200 193 186 197 215 237 244 230 220 212 204 212 225 220 210 210 206 186
355 354 353 351 347 343 338 331 323 312 303 292 271 252 237 222 212 211 213 221 214 195 192 195 195 187 191 188 183 197 211 225 228 226 228 227 225 224 225 221 209 203 204 200
348 349 349 348 347 346 345 343 340 333 325 314 297 275 257 236 221 219 218 212 200 191 188 189 191 183 184 182 183 196 206 221 223 217 218 225 231 236 236 231 221 208 202 199
339 340 342 344 343 342 345 348 346 343 339 332 324 309 284 262 238 226 229 210 193 191 191 190 189 186 183 185 188 194 205 213 216 214 213 216 222 228 238 243 233 217 206 200
331 334 334 337 339 343 347 348 347 348 345 344 341 336 325 306 282 252 234 211 201 194 194 194 189 187 184 193 196 199 205 207 208 209 214 214 215 219 223 228 232 226 219 215
322 325 328 333 335 339 341 343 346 351 355 353 347 344 342 335 326 315 286 235 201 189 194 193 187 186 189 197 199 204 206 205 202 200 205 212 214 215 220 223 222 222 221 223
309 310 314 318 326 331 335 339 342 347 352 352 346 345 345 345 344 342 333 319 220 190 195 188 186 191 199 202 203 205 205 202 200 200 201 200 206 209 215 220 226 221 221 224
300 300 299 304 312 325 329 330 334 339 348 351 344 347 350 354 354 350 343 339 338 265 230 223 193 195 204 208 209 208 203 198 191 188 194 201 207 213 217 218 212 211 212 220
Height
1538 1539 1540 1540 1542 1544 1547 1545 1545 1541 1542 1540 1542 1546 1548 1550 1551 1551 1551 1550 1549 1547 1545 1543 1540 1538 1535 1533 1531 1529 1526 1524 1521 1520 1517 1515 1513 1511 1509 1507 1505 1503 1501 1499
1536 1534 1537 1538 1535 1536 1539 1540 1540 1540 1540 1536 1540 1544 1546 1548 1549 1549 1549 1549 1548 1547 1545 1543 1540 1538 1536 1534 1532 1530 1528 1525 1523 1521 1519 1517 1515 1513 1511 1508 1506 1504 1501 1500
1535 1529 1535 1535 1524 1528 1532 1532 1536 1539 1535 1535 1539 1542 1544 1545 1547 1548 1548 1548 1548 1546 1545 1542 1540 1538 1536 1534 1532 1531 1529 1527 1524 1522 1520 1518 1516 1514 1512 1510 1507 1505 1502 1500
1536 1532 1541 1529 1520 1521 1526 1528 1529 1531 1533 1535 1538 1540 1542 1544 1545 1547 1547 1547 1547 1546 1544 1542 1540 1538 1536 1534 1533 1531 1529 1528 1526 1523 1521 1519 1517 1515 1513 1511 1509 1506 1504 1502
1537 1538 1530 1525 1522 1523 1528 1528 1523 1527 1530 1533 1536 1539 1540 1541 1543 1545 1546 1546 1546 1545 1544 1542 1540 1538 1536 1534 1533 1532 1530 1528 1526 1524 1522 1520 1518 1516 1514 1512 1510 1508 1506 1504
1540 1543 1535 1527 1522 1523 1528 1528 1518 1521 1526 1530 1535 1538 1536 1536 1540 1543 1544 1545 1545 1544 1543 1542 1540 1538 1537 1535 1533 1531 1530 1529 1527 1525 1523 1521 1519 1517 1515 1513 1512 1510 1508 1506
1546 1543 1524 1522 1523 1526 1535 1529 1520 1520 1523 1527 1531 1535 1533 1534 1538 1541 1542 1543 1543 1543 1543 1541 1539 1538 1537 1535 1533 1532 1530 1529 1528 1526 1524 1522 1520 1518 1516 1515 1513 1511 1510 1507
1535 1538 1532 1523 1524 1525 1524 1521 1521 1521 1523 1525 1529 1532 1533 1535 1537 1539 1541 1541 1542 1542 1542 1540 1539 1538 1537 1535 1533 1532 1531 1530 1528 1527 1525 1523 1521 1519 1518 1516 1514 1513 1511 1509
1524 1525 1520 1520 1520 1520 1520 1520 1519 1520 1522 1524 1526 1529 1531 1534 1536 1538 1539 1540 1540 1540 1540 1539 1538 1537 1536 1535 1533 1532 1531 1530 1529 1528 1526 1524 1522 1521 1519 1517 1515 1513 1512 1510
1522 1517 1515 1515 1516 1517 1518 1518 1518 1519 1520 1522 1524 1527 1529 1531 1534 1535 1537 1538 1538 1538 1538 1538 1537 1536 1535 1534 1533 1532 1531 1530 1529 1529 1527 1526 1524 1522 1519 1517 1515 1513 1511 1510
1520 1515 1512 1511 1512 1513 1514 1515 1516 1517 1518 1519 1522 1524 1526 1528 1531 1532 1534 1535 1536 1536 1537 1536 1536 1535 1534 1533 1532 1532 1531 1530 1529 1528 1527 1526 1525 1523 1521 1518 1516 1514 1512 1510
1518 1512 1511 1510 1510 1511 1511 1512 1513 1515 1516 1517 1518 1521 1523 1525 1527 1529 1531 1532 1533 1533 1534 1534 1534 1534 1532 1531 1531 1530 1530 1530 1529 1528 1527 1526 1525 1523 1522 1520 1518 1516 1514 1512
1511 1511 1511 1511 1511 1510 1510 1510 1510 1511 1512 1514 1515 1517 1519 1521 1523 1525 1527 1528 1529 1530 1531 1531 1532 1531 1530 1529 1529 1529 1529 1528 1528 1527 1527 1526 1525 1524 1522 1521 1520 1518 1516 1514
1510 1510 1509 1509 1509 1508 1507 1507 1507 1508 1509 1510 1512 1513 1515 1517 1519 1520 1522 1523 1525 1526 1527 1528 1528 1528 1528 1527 1527 1527 1527 1527 1526 1525 1525 1525 1525 1524 1523 1522 1520 1519 1517 1516
1508 1508 1508 1507 1506 1506 1505 1505 1505 1505 1505 1506 1508 1509 1510 1512 1513 1515 1517 1519 1521 1521 1522 1523 1524 1524 1524 1524 1524 1524 1524 1524 1524 1524 1524 1524 1523 1523 1522 1522 1521 1519 1518 1517
1508 1506 1505 1505 1504 1503 1503 1502 1502 1501 1502 1502 1503 1504 1505 1507 1509 1510 1512 1514 1515 1516 1517 1518 1519 1520 1520 1520 1520 1520 1521 1521 1521 1521 1522 1522 1522 1521 1521 1521 1521 1520 1518 1517
1509 1507 1506 1504 1503 1501 1500 1499 1498 1498 1498 1497 1498 1499 1500 1501 1503 1504 1506 1508 1509 1510 1511 1513 1514 1515 1516 1516 1516 1517 1517 1518 1518 1519 1519 1519 1520 1520 1520 1520 1520 1519 1518 1517
1513 1511 1508 1506 1502 1499 1496 1495 1494 1493 1492 1492 1493 1493 1494 1494 1495 1497 1499 1502 1503 1504 1505 1507 1509 1510 1511 1511 1512 1513 1514 1515 1515 1515 1515 1516 1517 1518 1518 1518 1518 1517 1517 1516
1511 1509 1506 1503 1500 1496 1493 1491 1489 1487 1486 1486 1486 1486 1486 1487 1488 1490 1493 1495 1496 1496 1498 1501 1503 1504 1505 1506 1507 1508 1509 1511 1512 1512 1513 1513 1514 1514 1515 1515 1515 1515 1515 1514
1510 1508 1505 1501 1497 1494 1490 1486 1484 1481 1480 1479 1479 1479 1479 1479 1481 1483 1485 1486 1486 1488 1492 1494 1496 1497 1499 1501 1502 1503 1504 1505 1507 1508 1509 1510 1510 1510 1511 1511 1512 1512 1513 1513
1510 1506 1502 1499 1495 1491 1488 1484 1480 1476 1474 1473 1472 1472 1472 1473 1474 1476 1477 1477 1479 1483 1485 1487 1489 1490 1492 1494 1496 1497 1498 1500 1501 1502 1504 1505 1506 1506 1507 1508 1508 1509 1509 1510
1508 1505 1501 1497 1493 1489 1485 1481 1477 1473 1469 1467 1466 1466 1466 1466 1467 1468 1468 1470 1473 1476 1478 1480 1482 1484 1486 1488 1489 1491 1492 1493 1495 1496 1498 1499 1500 1501 1503 1504 1504 1505 1505 1506
1507 1504 1501 1497 1493 1489 1484 1479 1475 1470 1467 1463 1461 1460 1460 1460 1461 1462 1462 1464 1466 1468 1470 1472 1474 1477 1479 1481 1482 1484 1485 1487 1488 1490 1491 1493 1494 1496 1497 1498 1499 1500 1501 1502
1505 1502 1499 1496 1492 1487 1483 1478 1474 1469 1465 1461 1458 1456 1455 1454 1454 1455 1456 1458 1459 1461 1462 1464 1467 1470 1472 1474 1476 1477 1478 1480 1482 1483 1485 1487 1488 1490 1491 1492 1494 1495 1496 1497
1502 1500 1497 1494 1490 1487 1483 1479 1474 1469 1464 1459 1456 1453 1452 1451 1450 1449 1449 1450 1451 1453 1455 1457 1459 1462 1464 1466 1468 1470 1472 1473 1475 1477 1479 1480 1482 1483 1485 1486 1487 1489 1490 1491
1499 1496 1494 1491 1489 1485 1482 1478 1475 1470 1466 1461 1456 1453 1450 1447 1445 1443 1443 1443 1444 1446 1448 1450 1452 1454 1456 1458 1460 1463 1465 1467 1469 1470 1472 1474 1475 1477 1478 1480 1481 1482 1484 1485
1495 1493 1490 1487 1485 1482 1479 1476 1473 1470 1466 1462 1458 1454 1450 1446 1443 1440 1439 1439 1439 1440 1442 1443 1444 1446 1448 1450 1453 1455 1457 1460 1461 1463 1465 1467 1469 1470 1472 1473 1475 1476 1477 1478